Location: McFarlands Corners
(41.4117°N, 81.3382°W)
Time: 14:05:02
(UTC+00:00)

A-11 Canister half - Pass Details

Date: 20 February 2026
Orbit: 1525 x 1683 km, 47.3° (Epoch: 11 March)

Event Time Altitude Azimuth Distance (km) Brightness Sun altitude
Rises 00:41:15 0° 282° (WNW) 4,692 13.1 -18.9°
Reaches altitude 10° 00:44:22 10° 286° (WNW) 3,700 12.2 -19.4°
Maximum altitude 00:53:35 62° 6° (N) 1,683 9.1 -21.2°
Enters shadow 00:58:22 32° 76° (ENE) 2,410 9.5 -22.1°
Drops below altitude 10° 01:02:50 10° 87° (E) 3,714 - -22.9°
Sets 01:05:59 0° 91° (E) 4,711 - -23.5°
